OK9DOB-5 Weather Reports


Display with metric or nautical units.
time (UTC)temp
F
wind
direction
speed
MPH
gust
MPH
rain 1hr
in
rain 24hr
in
rain mn
in
humidity
%
barometer
mb
20260504173347 68 0.0 0.0 0.00 0.00 0.00 75
20260504172345 69 0.0 0.0 0.00 0.00 0.00 75
20260504171342 71 0.0 0.0 0.00 0.00 0.00 73
20260504170340 72 0.0 0.0 0.00 0.00 0.00 71
20260504160325 77 0.0 0.0 0.00 0.00 0.00 63
20260504150310 79 0.0 0.0 0.00 0.00 0.00 59
20260504141258 78 0.0 0.0 0.00 0.00 0.00 61
20260504140255 78 0.0 0.0 0.00 0.00 0.00 60
20260504130240 78 0.0 0.0 0.00 0.00 0.00 62
20260504120225 73 0.0 0.0 0.00 0.00 0.00 66
20260504110210 70 0.0 0.0 0.00 0.00 0.00 67
20260504100156 68 0.0 0.0 0.00 0.00 0.00 68
20260504090140 65 0.0 0.0 0.00 0.00 0.00 70
20260504081128 62 0.0 0.0 0.00 0.00 0.00 73
20260504080126 62 0.0 0.0 0.00 0.00 0.00 71
20260504070110 59 0.0 0.0 0.00 0.00 0.00 75
20260504045039 51 0.0 0.0 0.00 0.00 0.00 84
20260504044036 49 0.0 0.0 0.00 0.00 0.00 86
20260504043033 48 0.0 0.0 0.00 0.00 0.00 88
20260504042031 47 0.0 0.0 0.00 0.00 0.00 90
20260504041029 47 0.0 0.0 0.00 0.00 0.00 89
20260504040026 46 0.0 0.0 0.00 0.00 0.00 89
20260504035024 46 0.0 0.0 0.00 0.00 0.00 89
20260504034021 46 0.0 0.0 0.00 0.00 0.00 88
20260504033019 45 0.0 0.0 0.00 0.00 0.00 90
20260504032016 45 0.0 0.0 0.00 0.00 0.00 90
20260504031014 45 0.0 0.0 0.00 0.00 0.00 90
20260504030011 45 0.0 0.0 0.00 0.00 0.00 89
20260504025009 45 0.0 0.0 0.00 0.00 0.00 89
20260504024006 45 0.0 0.0 0.00 0.00 0.00 88
20260504023004 45 0.0 0.0 0.00 0.00 0.00 88
20260504022001 46 0.0 0.0 0.00 0.00 0.00 86
20260504020959 46 0.0 0.0 0.00 0.00 0.00 87
20260504015956 46 0.0 0.0 0.00 0.00 0.00 87
20260504014954 46 0.0 0.0 0.00 0.00 0.00 86
20260504013951 46 0.0 0.0 0.00 0.00 0.00 86
20260504012949 47 0.0 0.0 0.00 0.00 0.00 83
20260504011946 47 0.0 0.0 0.00 0.00 0.00 82
20260504010944 48 0.0 0.0 0.00 0.00 0.00 82
20260504005941 48 0.0 0.0 0.00 0.00 0.00 81
20260504004939 49 0.0 0.0 0.00 0.00 0.00 80
20260504003936 50 0.0 0.0 0.00 0.00 0.00 78
20260504002934 51 0.0 0.0 0.00 0.00 0.00 76
20260504001931 52 0.0 0.0 0.00 0.00 0.00 75
20260504000929 51 0.0 0.0 0.00 0.00 0.00 76
20260503235926 51 0.0 0.0 0.00 0.00 0.00 77
20260503234924 50 0.0 0.0 0.00 0.00 0.00 78
20260503233921 50 0.0 0.0 0.00 0.00 0.00 79
20260503232919 51 0.0 0.0 0.00 0.00 0.00 76
20260503231916 52 0.0 0.0 0.00 0.00 0.00 75
20260503230914 53 0.0 0.0 0.00 0.00 0.00 74
20260503225912 54 0.0 0.0 0.00 0.00 0.00 73
20260503224909 54 0.0 0.0 0.00 0.00 0.00 72
20260503223907 54 0.0 0.0 0.00 0.00 0.00 72
20260503222904 54 0.0 0.0 0.00 0.00 0.00 72
20260503221902 55 0.0 0.0 0.00 0.00 0.00 71
20260503220859 55 0.0 0.0 0.00 0.00 0.00 70
20260503215857 56 0.0 0.0 0.00 0.00 0.00 70
20260503214854 56 0.0 0.0 0.00 0.00 0.00 70
20260503213852 57 0.0 0.0 0.00 0.00 0.00 69
20260503212849 56 0.0 0.0 0.00 0.00 0.00 71
20260503211847 57 0.0 0.0 0.00 0.00 0.00 71
20260503210844 57 0.0 0.0 0.00 0.00 0.00 70
20260503205842 58 0.0 0.0 0.00 0.00 0.00 70
20260503204839 58 0.0 0.0 0.00 0.00 0.00 71
20260503203837 58 0.0 0.0 0.00 0.00 0.00 72
20260503202834 58 0.0 0.0 0.00 0.00 0.00 72
20260503201832 58 0.0 0.0 0.00 0.00 0.00 72
20260503200829 57 0.0 0.0 0.00 0.00 0.00 74
20260503195827 58 0.0 0.0 0.00 0.00 0.00 72
20260503194825 59 0.0 0.0 0.00 0.00 0.00 72
20260503193822 60 0.0 0.0 0.00 0.00 0.00 70
20260503192818 59 0.0 0.0 0.00 0.00 0.00 70
20260503191816 59 0.0 0.0 0.00 0.00 0.00 71
20260503190813 60 0.0 0.0 0.00 0.00 0.00 70
20260503185811 60 0.0 0.0 0.00 0.00 0.00 69
20260503184808 61 0.0 0.0 0.00 0.00 0.00 69
20260503183806 61 0.0 0.0 0.00 0.00 0.00 69
20260503182804 61 0.0 0.0 0.00 0.00 0.00 69
20260503181801 62 0.0 0.0 0.00 0.00 0.00 67
20260503180759 63 0.0 0.0 0.00 0.00 0.00 67
20260503175756 65 0.0 0.0 0.00 0.00 0.00 65
20260503174754 66 0.0 0.0 0.00 0.00 0.00 63